MAU845 FIMP-FALE

Flight info

Callsign MAU845
Flight time N/A
Altitude 40000
Route PASAR2A PASAR UA402 APLUK DCT ITMIL ITMIL1A
Aircraft A359/H-SDE2E3GHIJ1J3J4J5LM1ORWXY/LB1D1

Departure

Time N/A
Airport Sir Seewoosagur Ramgoolam International Airport (FIMP)

Arrival

Time 2026-05-04 15:03
Airport King Shaka International Airport (FALE)
Time Latitude Longitude Altitude Speed Heading
2026-05-04 14:25 -28.88040 34.28882 39953 ft 425 kts 266°
2026-05-04 14:26 -28.88485 34.22119 39954 ft 430 kts 266°
2026-05-04 14:26 -28.88943 34.15303 39939 ft 431 kts 266°
2026-05-04 14:27 -28.89411 34.08477 39940 ft 432 kts 266°
2026-05-04 14:27 -28.89879 34.01641 39941 ft 432 kts 266°
2026-05-04 14:28 -28.90344 33.94804 39947 ft 432 kts 266°
2026-05-04 14:28 -28.90805 33.87972 39928 ft 431 kts 266°
2026-05-04 14:29 -28.91720 33.74214 39922 ft 439 kts 266°
2026-05-04 14:30 -28.92178 33.67248 39924 ft 442 kts 267°
2026-05-04 14:31 -28.92863 33.56744 39924 ft 443 kts 267°
2026-05-04 14:32 -28.93766 33.42687 39916 ft 444 kts 267°
2026-05-04 14:32 -28.94212 33.35656 39911 ft 444 kts 267°
2026-05-04 14:33 -28.94654 33.28623 39912 ft 444 kts 267°
2026-05-04 14:33 -28.95093 33.21587 39908 ft 444 kts 267°
2026-05-04 14:34 -28.95528 33.14548 39911 ft 444 kts 267°
2026-05-04 14:34 -28.95960 33.07518 39903 ft 444 kts 267°
2026-05-04 14:35 -28.96387 33.00493 39878 ft 443 kts 267°
2026-05-04 14:35 -28.96810 32.93471 39803 ft 443 kts 267°
2026-05-04 14:35 -28.97020 32.89959 39617 ft 444 kts 267°
2026-05-04 14:36 -28.97230 32.86458 39315 ft 439 kts 267°
2026-05-04 14:36 -28.97436 32.82982 38587 ft 439 kts 267°
2026-05-04 14:36 -28.97642 32.79497 37603 ft 442 kts 267°
2026-05-04 14:36 -28.97849 32.75984 36797 ft 445 kts 268°
2026-05-04 14:37 -28.98056 32.72435 36084 ft 450 kts 268°
2026-05-04 14:37 -28.98265 32.68848 35360 ft 455 kts 268°
2026-05-04 14:37 -28.98475 32.65229 34763 ft 459 kts 268°
2026-05-04 14:37 -28.98686 32.61581 34214 ft 462 kts 268°
2026-05-04 14:38 -28.98898 32.57906 33604 ft 465 kts 268°
2026-05-04 14:38 -28.99109 32.54215 33004 ft 468 kts 268°
2026-05-04 14:38 -28.99321 32.50498 32425 ft 470 kts 268°
2026-05-04 14:38 -28.99533 32.46759 31839 ft 473 kts 268°
2026-05-04 14:39 -28.99745 32.42995 31249 ft 476 kts 268°
2026-05-04 14:39 -28.99957 32.39214 30749 ft 474 kts 268°
2026-05-04 14:39 -29.00166 32.35501 30471 ft 462 kts 268°
2026-05-04 14:40 -29.00564 32.28371 29940 ft 440 kts 269°
2026-05-04 14:40 -29.00755 32.24910 29409 ft 434 kts 269°
2026-05-04 14:40 -29.00942 32.21490 28729 ft 426 kts 269°
2026-05-04 14:40 -29.01124 32.18142 27606 ft 420 kts 269°
2026-05-04 14:41 -29.01303 32.14840 26713 ft 411 kts 269°
2026-05-04 14:41 -29.01459 32.11974 26282 ft 394 kts 269°
2026-05-04 14:41 -29.01782 32.06000 25332 ft 363 kts 269°
2026-05-04 14:42 -29.02080 32.00385 24381 ft 351 kts 269°
2026-05-04 14:42 -29.02225 31.97611 23925 ft 349 kts 269°
2026-05-04 14:42 -29.02369 31.94848 23446 ft 348 kts 269°
2026-05-04 14:43 -29.02513 31.92108 23061 ft 338 kts 269°
2026-05-04 14:43 -29.02652 31.89521 22927 ft 315 kts 269°
2026-05-04 14:43 -29.02781 31.87091 22819 ft 302 kts 269°
2026-05-04 14:43 -29.02936 31.84694 22704 ft 303 kts 266°
2026-05-04 14:44 -29.03413 31.82350 22566 ft 306 kts 254°
2026-05-04 14:44 -29.04390 31.80165 22178 ft 312 kts 240°
2026-05-04 14:44 -29.05850 31.78308 21765 ft 317 kts 228°
2026-05-04 14:44 -29.07518 31.76646 21338 ft 319 kts 226°
2026-05-04 14:45 -29.09211 31.75017 20945 ft 318 kts 226°
2026-05-04 14:45 -29.10903 31.73383 20543 ft 317 kts 226°
2026-05-04 14:45 -29.12579 31.71753 20147 ft 316 kts 226°
2026-05-04 14:45 -29.14249 31.70122 19762 ft 315 kts 226°
2026-05-04 14:46 -29.15914 31.68492 19323 ft 314 kts 226°
2026-05-04 14:46 -29.17010 31.67417 19079 ft 314 kts 226°
2026-05-04 14:46 -29.18665 31.65792 18676 ft 316 kts 226°
2026-05-04 14:46 -29.20357 31.64124 18222 ft 323 kts 226°
2026-05-04 14:47 -29.22063 31.62447 17714 ft 324 kts 226°
2026-05-04 14:47 -29.23776 31.60763 17201 ft 325 kts 226°
2026-05-04 14:47 -29.25494 31.59072 16701 ft 326 kts 226°
2026-05-04 14:47 -29.27214 31.57379 16207 ft 327 kts 225°
2026-05-04 14:48 -29.28939 31.55681 15714 ft 327 kts 225°
2026-05-04 14:48 -29.30724 31.54050 15227 ft 329 kts 221°
2026-05-04 14:48 -29.32563 31.52484 14750 ft 329 kts 221°
2026-05-04 14:48 -29.34399 31.50919 14293 ft 329 kts 221°
2026-05-04 14:49 -29.36231 31.49344 13836 ft 329 kts 221°
2026-05-04 14:49 -29.38053 31.47768 13357 ft 328 kts 221°
2026-05-04 14:49 -29.39851 31.46207 12843 ft 318 kts 221°
2026-05-04 14:49 -29.41576 31.44710 12360 ft 305 kts 221°
2026-05-04 14:50 -29.43237 31.43264 11860 ft 294 kts 220°
2026-05-04 14:50 -29.44841 31.41865 11402 ft 285 kts 220°
2026-05-04 14:50 -29.46394 31.40508 10925 ft 277 kts 220°
2026-05-04 14:50 -29.47908 31.39184 10447 ft 270 kts 220°
2026-05-04 14:51 -29.49384 31.37892 10011 ft 264 kts 219°
2026-05-04 14:51 -29.50828 31.36628 9520 ft 259 kts 219°
2026-05-04 14:51 -29.52247 31.35387 9030 ft 254 kts 219°
2026-05-04 14:51 -29.53646 31.34162 8553 ft 255 kts 218°
2026-05-04 14:52 -29.55070 31.32913 8054 ft 260 kts 219°
2026-05-04 14:52 -29.56519 31.31644 7571 ft 264 kts 218°
2026-05-04 14:52 -29.57992 31.30353 7126 ft 267 kts 218°
2026-05-04 14:52 -29.59462 31.29065 6804 ft 264 kts 218°
2026-05-04 14:53 -29.60918 31.27795 6485 ft 262 kts 218°
2026-05-04 14:53 -29.62367 31.26537 6161 ft 260 kts 218°
2026-05-04 14:53 -29.63794 31.25296 5813 ft 252 kts 217°
2026-05-04 14:53 -29.65097 31.24163 5504 ft 242 kts 218°
2026-05-04 14:54 -29.66135 31.23262 5248 ft 239 kts 218°
2026-05-04 14:54 -29.67464 31.22105 4921 ft 240 kts 218°
2026-05-04 14:54 -29.68796 31.20945 4608 ft 241 kts 218°
2026-05-04 14:54 -29.70129 31.19783 4263 ft 240 kts 218°
2026-05-04 14:55 -29.71446 31.18635 3918 ft 235 kts 218°
2026-05-04 14:55 -29.72745 31.17503 3602 ft 234 kts 218°
2026-05-04 14:55 -29.74036 31.16377 3235 ft 231 kts 217°
2026-05-04 14:55 -29.75318 31.15260 2846 ft 232 kts 217°
2026-05-04 14:56 -29.76546 31.14058 2563 ft 232 kts 228°
2026-05-04 14:56 -29.77591 31.12636 2497 ft 233 kts 232°
2026-05-04 14:56 -29.78593 31.11174 2493 ft 233 kts 233°
2026-05-04 14:56 -29.79434 31.09601 2491 ft 231 kts 253°
2026-05-04 14:57 -29.79655 31.07803 2493 ft 225 kts 272°
2026-05-04 14:57 -29.79582 31.06108 2506 ft 198 kts 278°
2026-05-04 14:57 -29.79377 31.04653 2533 ft 174 kts 282°
2026-05-04 14:57 -29.79160 31.03279 2520 ft 180 kts 283°
2026-05-04 14:58 -29.78923 31.01821 2490 ft 189 kts 283°
2026-05-04 14:58 -29.78563 31.00378 2467 ft 190 kts 301°
2026-05-04 14:58 -29.77708 30.99270 2469 ft 184 kts 327°
2026-05-04 14:58 -29.76491 30.99038 2510 ft 181 kts 12°
2026-05-04 14:59 -29.75333 30.99554 2497 ft 180 kts 33°
2026-05-04 14:59 -29.74362 31.00395 2491 ft 180 kts 39°
2026-05-04 14:59 -29.72377 31.02152 2493 ft 178 kts 37°
2026-05-04 15:00 -29.71387 31.03011 2363 ft 178 kts 37°
2026-05-04 15:00 -29.70405 31.03865 2141 ft 177 kts 38°
2026-05-04 15:00 -29.69455 31.04698 1904 ft 168 kts 38°
2026-05-04 15:01 -29.67630 31.06296 1530 ft 158 kts 38°
2026-05-04 15:01 -29.66790 31.07030 1340 ft 145 kts 38°
2026-05-04 15:01 -29.66003 31.07720 1172 ft 141 kts 38°
2026-05-04 15:01 -29.65223 31.08403 1005 ft 142 kts 38°
2026-05-04 15:02 -29.64439 31.09088 807 ft 141 kts 37°
2026-05-04 15:02 -29.63667 31.09760 640 ft 141 kts 36°
2026-05-04 15:02 -29.62884 31.10440 428 ft 139 kts 37°
2026-05-04 15:02 -29.62112 31.11108 310 ft 136 kts 41°
2026-05-04 15:03 -29.61520 31.11630 310 ft 77 kts 37°
2026-05-04 15:03 -29.61256 31.11862 311 ft 25 kts 37°
2026-05-04 15:03 -29.61114 31.11976 310 ft 25 kts 29°
2026-05-04 15:03 -29.60946 31.12038 308 ft 26 kts
2026-05-04 15:04 -29.60861 31.12005 311 ft 6 kts 289°
2026-05-04 15:04 -29.60876 31.11952 311 ft 8 kts 225°
2026-05-04 15:04 -29.60956 31.11877 311 ft 17 kts 219°
2026-05-04 15:04 -29.61046 31.11794 310 ft 17 kts 217°
2026-05-04 15:05 -29.61148 31.11707 311 ft 19 kts 217°
2026-05-04 15:05 -29.61260 31.11610 313 ft 21 kts 217°
2026-05-04 15:05 -29.61383 31.11503 310 ft 24 kts 217°
2026-05-04 15:05 -29.61524 31.11381 308 ft 26 kts 217°
2026-05-04 15:06 -29.61676 31.11249 305 ft 28 kts 217°
2026-05-04 15:06 -29.61772 31.11130 306 ft 15 kts 269°
2026-05-04 15:06 -29.61721 31.11027 307 ft 16 kts 306°
2026-05-04 15:07 -29.61581 31.10814 306 ft 18 kts 307°
2026-05-04 15:07 -29.61531 31.10683 306 ft 17 kts 255°
2026-05-04 15:07 -29.61579 31.10618 307 ft 5 kts 191°
2026-05-04 15:07 -29.61617 31.10635 305 ft 7 kts 134°
2026-05-04 15:08 -29.61650 31.10683 307 ft 7 kts 128°
2026-05-04 15:08 -29.61667 31.10707 307 ft 3 kts 129°
2026-05-04 15:08 -29.61669 31.10711 307 ft 0 kts 129°